SWA636 KPHX-KTUS

Flight info

Callsign SWA636
Flight time 0h 28m
Altitude 23000
Route STRRM1 STRRM BASER DINGO DINGO6
Aircraft B738/M-SDE3/STD

Departure

Time 2026-04-22 16:37
Airport Phoenix Sky Harbor International Airport (KPHX)

Arrival

Time 2026-04-22 17:05
Airport Tucson International Airport (KTUS)
Time Latitude Longitude Altitude Speed Heading
2026-04-22 16:20 33.43689 -112.00940 1127 ft 0 kts 90°
2026-04-22 16:26 33.43689 -112.00955 1127 ft 4 kts 90°
2026-04-22 16:27 33.43689 -112.00996 1127 ft 2 kts 90°
2026-04-22 16:31 33.43692 -112.00982 1127 ft 5 kts 61°
2026-04-22 16:32 33.43718 -112.00981 1127 ft 5 kts 326°
2026-04-22 16:32 33.43778 -112.01009 1127 ft 13 kts 359°
2026-04-22 16:32 33.43875 -112.01015 1127 ft 12 kts 335°
2026-04-22 16:32 33.43909 -112.01105 1127 ft 14 kts 297°
2026-04-22 16:33 33.43970 -112.01184 1127 ft 12 kts 280°
2026-04-22 16:33 33.43975 -112.01283 1127 ft 11 kts 273°
2026-04-22 16:33 33.43976 -112.01382 1126 ft 12 kts 270°
2026-04-22 16:33 33.43977 -112.01498 1124 ft 14 kts 270°
2026-04-22 16:34 33.43976 -112.01619 1124 ft 14 kts 270°
2026-04-22 16:34 33.43975 -112.01745 1122 ft 15 kts 270°
2026-04-22 16:34 33.43976 -112.01881 1121 ft 15 kts 271°
2026-04-22 16:34 33.43977 -112.01988 1121 ft 8 kts 275°
2026-04-22 16:35 33.43988 -112.02020 1121 ft 0 kts 313°
2026-04-22 16:35 33.43995 -112.02027 1121 ft 4 kts 318°
2026-04-22 16:36 33.44038 -112.02059 1121 ft 7 kts 334°
2026-04-22 16:36 33.44078 -112.02072 1121 ft 5 kts 38°
2026-04-22 16:36 33.44087 -112.01976 1121 ft 36 kts 90°
2026-04-22 16:36 33.44086 -112.01256 1127 ft 134 kts 90°
2026-04-22 16:37 33.44099 -111.99890 1558 ft 185 kts 90°
2026-04-22 16:37 33.44063 -111.98230 2322 ft 217 kts 92°
2026-04-22 16:37 33.43974 -111.96292 3059 ft 256 kts 94°
2026-04-22 16:37 33.43818 -111.94122 3776 ft 267 kts 96°
2026-04-22 16:38 33.43267 -111.92013 4390 ft 267 kts 120°
2026-04-22 16:38 33.42089 -111.90308 4993 ft 269 kts 140°
2026-04-22 16:38 33.40464 -111.89229 5594 ft 271 kts 161°
2026-04-22 16:38 33.38636 -111.88800 6212 ft 273 kts 170°
2026-04-22 16:39 33.36744 -111.88454 6843 ft 275 kts 171°
2026-04-22 16:39 33.34858 -111.88165 7449 ft 277 kts 178°
2026-04-22 16:39 33.32972 -111.88562 8041 ft 279 kts 200°
2026-04-22 16:39 33.31217 -111.89523 8665 ft 282 kts 204°
2026-04-22 16:40 33.29461 -111.90546 9280 ft 284 kts 208°
2026-04-22 16:40 33.27760 -111.91744 9888 ft 286 kts 210°
2026-04-22 16:40 33.24285 -111.94201 11183 ft 301 kts 210°
2026-04-22 16:41 33.22503 -111.95458 11812 ft 302 kts 210°
2026-04-22 16:41 33.20702 -111.96729 12426 ft 299 kts 210°
2026-04-22 16:41 33.18938 -111.97984 13013 ft 296 kts 210°
2026-04-22 16:41 33.17196 -111.99234 13603 ft 294 kts 210°
2026-04-22 16:42 33.15444 -112.00500 14202 ft 292 kts 210°
2026-04-22 16:42 33.13727 -112.01749 14794 ft 289 kts 209°
2026-04-22 16:42 33.11901 -112.02631 15360 ft 285 kts 190°
2026-04-22 16:42 33.09958 -112.02685 15961 ft 281 kts 171°
2026-04-22 16:43 33.08126 -112.01958 16538 ft 279 kts 153°
2026-04-22 16:43 33.06540 -112.00700 17130 ft 278 kts 148°
2026-04-22 16:43 33.04959 -111.99391 17720 ft 276 kts 148°
2026-04-22 16:43 33.03389 -111.98089 18313 ft 274 kts 148°
2026-04-22 16:44 33.01762 -111.97012 18858 ft 268 kts 164°
2026-04-22 16:44 32.99987 -111.96485 19417 ft 265 kts 162°
2026-04-22 16:44 32.98363 -111.95493 19991 ft 266 kts 154°
2026-04-22 16:44 32.96789 -111.94351 20583 ft 264 kts 154°
2026-04-22 16:45 32.95244 -111.93198 21169 ft 263 kts 153°
2026-04-22 16:45 32.93727 -111.92033 21733 ft 262 kts 152°
2026-04-22 16:45 32.92185 -111.90856 22291 ft 261 kts 155°
2026-04-22 16:45 32.90641 -111.89717 22853 ft 259 kts 156°
2026-04-22 16:46 32.89068 -111.88557 23054 ft 264 kts 155°
2026-04-22 16:46 32.87518 -111.87404 23076 ft 262 kts 155°
2026-04-22 16:46 32.85983 -111.86254 23081 ft 259 kts 155°
2026-04-22 16:46 32.84462 -111.85117 23084 ft 258 kts 155°
2026-04-22 16:47 32.82958 -111.83992 23094 ft 257 kts 155°
2026-04-22 16:47 32.81484 -111.82885 23064 ft 247 kts 155°
2026-04-22 16:47 32.80072 -111.81825 23058 ft 235 kts 156°
2026-04-22 16:47 32.78702 -111.80801 23080 ft 232 kts 156°
2026-04-22 16:48 32.77315 -111.79768 23104 ft 237 kts 156°
2026-04-22 16:48 32.75915 -111.78726 22941 ft 246 kts 156°
2026-04-22 16:48 32.74440 -111.77612 22411 ft 253 kts 153°
2026-04-22 16:48 32.72953 -111.76482 21922 ft 257 kts 153°
2026-04-22 16:49 32.71435 -111.75337 21427 ft 261 kts 153°
2026-04-22 16:49 32.69895 -111.74202 20940 ft 264 kts 155°
2026-04-22 16:49 32.68321 -111.73059 20475 ft 267 kts 154°
2026-04-22 16:49 32.66754 -111.71907 20022 ft 269 kts 154°
2026-04-22 16:50 32.65159 -111.70727 19557 ft 271 kts 153°
2026-04-22 16:50 32.63570 -111.69548 19104 ft 272 kts 153°
2026-04-22 16:50 32.61958 -111.68349 18637 ft 274 kts 152°
2026-04-22 16:50 32.60344 -111.67149 18179 ft 275 kts 152°
2026-04-22 16:51 32.58717 -111.65939 17713 ft 277 kts 152°
2026-04-22 16:51 32.57121 -111.64702 17250 ft 278 kts 150°
2026-04-22 16:51 32.55523 -111.63459 16716 ft 268 kts 150°
2026-04-22 16:51 32.54012 -111.62291 16202 ft 258 kts 149°
2026-04-22 16:52 32.52541 -111.61169 15687 ft 249 kts 150°
2026-04-22 16:52 32.51092 -111.60078 15143 ft 243 kts 150°
2026-04-22 16:52 32.49660 -111.59012 14599 ft 239 kts 150°
2026-04-22 16:52 32.48264 -111.57984 14059 ft 235 kts 150°
2026-04-22 16:53 32.46879 -111.56972 13525 ft 232 kts 150°
2026-04-22 16:53 32.45518 -111.55989 12996 ft 230 kts 150°
2026-04-22 16:53 32.44165 -111.55022 12474 ft 228 kts 150°
2026-04-22 16:53 32.42822 -111.54071 11952 ft 227 kts 150°
2026-04-22 16:54 32.41476 -111.53128 11436 ft 225 kts 150°
2026-04-22 16:54 32.40160 -111.52117 10907 ft 225 kts 140°
2026-04-22 16:54 32.38969 -111.50936 10406 ft 223 kts 140°
2026-04-22 16:54 32.37797 -111.49777 9907 ft 222 kts 140°
2026-04-22 16:55 32.36620 -111.48624 9407 ft 221 kts 140°
2026-04-22 16:55 32.35435 -111.47475 8902 ft 220 kts 140°
2026-04-22 16:55 32.34261 -111.46345 8403 ft 219 kts 138°
2026-04-22 16:55 32.33075 -111.45207 7890 ft 219 kts 139°
2026-04-22 16:56 32.31892 -111.44096 7409 ft 218 kts 140°
2026-04-22 16:56 32.30708 -111.42971 7032 ft 223 kts 140°
2026-04-22 16:56 32.29473 -111.41795 6642 ft 230 kts 140°
2026-04-22 16:56 32.28228 -111.40608 6272 ft 235 kts 140°
2026-04-22 16:57 32.27026 -111.39310 5897 ft 238 kts 126°
2026-04-22 16:57 32.26148 -111.37632 5567 ft 239 kts 119°
2026-04-22 16:57 32.25303 -111.35917 5254 ft 241 kts 119°
2026-04-22 16:57 32.24495 -111.34206 4933 ft 242 kts 112°
2026-04-22 16:58 32.24091 -111.32278 4722 ft 237 kts 100°
2026-04-22 16:58 32.23811 -111.30409 4672 ft 227 kts 99°
2026-04-22 16:58 32.23542 -111.28607 4664 ft 215 kts 99°
2026-04-22 16:58 32.23293 -111.26937 4688 ft 201 kts 99°
2026-04-22 16:59 32.23053 -111.25327 4669 ft 198 kts 99°
2026-04-22 16:59 32.22812 -111.23717 4681 ft 201 kts 99°
2026-04-22 16:59 32.22566 -111.22067 4680 ft 203 kts 99°
2026-04-22 16:59 32.22320 -111.20416 4678 ft 203 kts 99°
2026-04-22 17:00 32.22078 -111.18791 4678 ft 203 kts 99°
2026-04-22 17:00 32.21607 -111.15636 4646 ft 185 kts 99°
2026-04-22 17:00 32.21384 -111.14142 4669 ft 186 kts 99°
2026-04-22 17:01 32.21154 -111.12608 4679 ft 188 kts 99°
2026-04-22 17:01 32.20926 -111.11079 4679 ft 189 kts 99°
2026-04-22 17:01 32.20700 -111.09559 4679 ft 189 kts 99°
2026-04-22 17:01 32.20472 -111.08023 4680 ft 189 kts 99°
2026-04-22 17:02 32.20240 -111.06508 4680 ft 189 kts 104°
2026-04-22 17:02 32.19815 -111.05028 4672 ft 186 kts 109°
2026-04-22 17:02 32.19384 -111.03638 4584 ft 178 kts 115°
2026-04-22 17:02 32.18696 -111.02425 4335 ft 180 kts 129°
2026-04-22 17:03 32.17911 -111.01306 4126 ft 175 kts 133°
2026-04-22 17:03 32.17055 -111.00320 3894 ft 170 kts 135°
2026-04-22 17:03 32.16227 -110.99357 3665 ft 166 kts 135°
2026-04-22 17:03 32.15410 -110.98400 3440 ft 162 kts 135°
2026-04-22 17:04 32.14622 -110.97473 3225 ft 158 kts 135°
2026-04-22 17:04 32.13851 -110.96569 3020 ft 155 kts 135°
2026-04-22 17:04 32.13096 -110.95682 2826 ft 154 kts 135°
2026-04-22 17:04 32.12337 -110.94789 2614 ft 154 kts 135°
2026-04-22 17:05 32.11653 -110.93990 2604 ft 97 kts 135°
2026-04-22 17:05 32.11369 -110.93655 2614 ft 45 kts 134°
2026-04-22 17:05 32.11203 -110.93456 2620 ft 17 kts 131°
2026-04-22 17:05 32.11150 -110.93359 2623 ft 10 kts 115°
2026-04-22 17:06 32.11133 -110.93299 2624 ft 6 kts 98°
2026-04-22 17:06 32.11142 -110.93228 2625 ft 11 kts 60°
2026-04-22 17:06 32.11217 -110.93228 2624 ft 15 kts 316°
2026-04-22 17:06 32.11306 -110.93328 2621 ft 18 kts 313°
2026-04-22 17:07 32.11394 -110.93436 2618 ft 17 kts 315°
2026-04-22 17:07 32.11476 -110.93531 2616 ft 15 kts 316°
2026-04-22 17:07 32.11552 -110.93617 2613 ft 14 kts 315°
2026-04-22 17:07 32.11624 -110.93705 2610 ft 14 kts 314°
2026-04-22 17:08 32.11698 -110.93788 2607 ft 14 kts 317°
2026-04-22 17:08 32.11771 -110.93777 2606 ft 12 kts 72°
2026-04-22 17:08 32.11767 -110.93694 2608 ft 9 kts 95°
2026-04-22 17:08 32.11806 -110.93667 2607 ft 8 kts 348°
2026-04-22 17:09 32.11851 -110.93677 2606 ft 3 kts 353°
2026-04-22 17:09 32.11857 -110.93677 2606 ft 0 kts 355°